Location: Chuathbaluk
(61.5726°N, 159.2454°W)
Time: 09:54:27
(UTC+00:00)

NUDT-PHONESAT - Visible Passes

Search period start: 17 January 2021 00:00
Search period end: 27 January 2021 00:00
Orbit: 482 x 497 km, 97.4° (Epoch: 17 January)

Date Brightness Start Highest point End Pass type
(mag) Time Alt. Az. Time Alt. Az. Time Alt. Az.
17 Jan ? 03:34:43 10° SE 03:38:18 55° ENE 03:41:54 10° N visible
17 Jan ? 05:09:06 10° SSW 05:12:07 24° W 05:15:10 10° NW visible
17 Jan ? 16:26:00 10° NE 16:28:38 18° E 16:31:15 10° SE visible
17 Jan ? 17:58:57 10° NNE 18:02:39 78° WNW 18:06:20 10° SSW visible
18 Jan ? 03:12:14 10° SE 03:15:36 36° ENE 03:19:00 10° N visible
18 Jan ? 04:45:47 10° SSW 04:49:11 37° W 04:52:37 10° NNW visible
18 Jan ? 16:04:01 10° ENE 16:05:35 12° E 16:07:11 10° ESE visible
18 Jan ? 17:36:11 10° NNE 17:39:52 68° ESE 17:43:32 10° S visible
19 Jan ? 04:22:43 10° S 04:26:18 58° WSW 04:29:57 10° NNW visible
19 Jan ? 05:59:56 10° W 06:00:41 10° W 06:01:27 10° WNW visible
19 Jan ? 17:13:28 10° NNE 17:17:01 43° E 17:20:32 10° S visible
20 Jan ? 03:59:50 10° SSE 04:03:29 89° E 04:07:11 10° NNW visible
20 Jan ? 05:35:18 10° SW 05:37:36 16° W 05:39:55 10° NW visible
20 Jan ? 16:50:51 10° NNE 16:54:05 28° E 16:57:19 10° SSE visible
20 Jan ? 18:24:16 10° N 18:27:50 48° WNW 18:31:23 10° SW visible
21 Jan ? 03:37:09 10° SE 03:40:43 58° ENE 03:44:21 10° N visible
21 Jan ? 05:11:35 10° SSW 05:14:35 23° W 05:17:35 10° NW visible
21 Jan ? 16:28:24 10° NE 16:31:06 19° E 16:33:48 10° SE visible
21 Jan ? 18:01:24 10° NNE 18:05:05 74° WNW 18:08:46 10° SSW visible
22 Jan ? 03:14:37 10° SE 03:18:01 38° ENE 03:21:27 10° N visible
22 Jan ? 04:48:14 10° SSW 04:51:37 35° W 04:55:02 10° NNW visible
22 Jan ? 16:06:18 10° NE 16:08:02 13° E 16:09:46 10° ESE visible
22 Jan ? 17:38:35 10° NNE 17:42:18 71° ESE 17:45:58 10° S visible
23 Jan ? 04:25:08 10° S 04:28:43 55° WSW 04:32:21 10° NNW visible
23 Jan ? 06:02:49 10° W 06:03:07 10° W 06:03:26 10° WNW visible
23 Jan ? 17:15:51 10° NNE 17:19:25 45° E 17:22:58 10° S visible
24 Jan ? 04:02:13 10° SSE 04:05:52 87° WSW 04:09:35 10° NNW visible
24 Jan ? 05:37:47 10° SW 05:40:01 15° W 05:42:15 10° NW visible
24 Jan ? 16:53:12 10° NNE 16:56:29 29° E 16:59:44 10° SSE visible
25 Jan ? 03:39:29 10° SSE 03:43:05 60° ENE 03:46:44 10° NNW visible
25 Jan ? 05:14:01 10° SW 05:16:58 23° W 05:19:56 10° NW visible
25 Jan ? 16:30:42 10° NE 16:33:29 20° E 16:36:14 10° SE visible
25 Jan ? 18:03:45 10° NNE 18:07:26 71° WNW 18:11:07 10° SSW visible
26 Jan ? 03:16:55 10° SE 03:20:21 39° ENE 03:23:49 10° N visible
26 Jan ? 04:50:37 10° SSW 04:53:59 34° W 04:57:23 10° NNW visible
26 Jan ? 16:08:33 10° NE 16:10:24 13° E 16:12:16 10° ESE visible
26 Jan ? 17:40:56 10° NNE 17:44:38 74° ESE 17:48:18 10° SSW visible
